Regional Weather Roundup
Issued by NWS

Home | Current Version | Previous Version | Text Only | Print | Product List | Glossary Off
Versions: 1 2 3 4 5 6 7 8 9 10 11 12 13 14 15 16 17 18 19 20 21 22 23 24 25 26 27 28 29 30 31 32 33 34 35 36 37 38 39 40 41 42 43 44 45 46 47 48 49 50

018
ASUS45 KSLC 040710
RWRUT

UTAH REGIONAL WEATHER ROUNDUP
NATIONAL WEATHER SERVICE SALT LAKE CITY UT
1200 AM MST SUN DEC 04 2016

UTZ001>011-023>025-040800-

NORTHERN UTAH

CITY           SKY/WX    TMP DP  RH WIND       PRES   REMARKS
BRIGHAM CITY     N/A     31  23  72 CALM      30.27F
HILL AFB       CLEAR     27  16  65 S5        30.25S WCI  21
LOGAN          PTCLDY   N/A N/A N/A S5        30.25F
OGDEN          CLEAR     28  19  69 S6        30.25S WCI  22
SALT LAKE CITY PTCLDY    31  20  63 SE9       30.27S WCI  23
TOOELE VALLEY  CLEAR     27  21  80 S9        30.27S WCI  17
WENDOVER       CLEAR     25  12  58 SE5       30.25S WCI  19
HEBER CITY     PTCLDY    12   9  85 CALM      30.26R
WEST JORDAN    CLEAR     27  23  83 S8        30.27F WCI  19

$$

UTZ011>015-024>027-040800-

CENTRAL/NORTHEAST UTAH

CITY           SKY/WX    TMP DP  RH WIND       PRES   REMARKS
PROVO AIRPORT  PTCLDY    22  16  78 SE6       30.31R WCI  14
MOAB/CANYONLAN CLEAR     22  11  62 SW3       30.22R
DELTA          CLEAR     18  14  86 E3        30.28F
PRICE          CLEAR     24  14  65 N7        30.20R WCI  16
ROOSEVELT      CLOUDY    18  12  79 W5        30.26R WCI  11
VERNAL         CLOUDY    16  11  80 W3        30.22F

$$

UTZ013>016-019>022-027-040800-

SOUTHERN UTAH

CITY           SKY/WX    TMP DP  RH WIND       PRES   REMARKS
BRYCE CANYON   NOT AVBL
CEDAR CITY     CLEAR     20  13  74 CALM      30.22S
MILFORD        CLEAR     18  12  77 CALM      30.27R
ST GEORGE      MOSUNNY   36  12  38 CALM      30.23S
HANKSVILLE     CLEAR     21  12  68 CALM      30.26R
BLANDING       CLEAR     26  11  54 S5        30.22S WCI  20

$$

REGIONAL REPORTS     COLORADO/ARIZONA

CITY           SKY/WX    TMP DP  RH WIND       PRES   REMARKS
CRAIG, CO      CLOUDY    15   9  76 CALM      30.21R
GRAND JUNCTION CLEAR     22  17  81 CALM      30.25R
RIFLE, CO      CLOUDY    18  12  77 CALM      30.25R
MONTROSE, CO   CLOUDY    20  12  71 SE12      30.26R WCI   8
CORTEZ, CO     CLOUDY    18  13  80 E8        30.14R WCI   8
COLORADO CITY    N/A     21  18  86 SE5       30.23S WCI  15
PAGE, AZ       CLEAR     32  10  40 SW5       30.20R WCI  27
GRAND CANYON   PTCLDY    11   7  84 CALM      30.18F
KINGMAN, AZ    CLEAR     37   9  31 E9        30.16R WCI  30
FLAGSTAFF, AZ  CLEAR     31   5  33 NE24G32   30.12R WCI  17

$$

REGIONAL REPORTS    NEVADA/IDAHO/WYOMING

CITY           SKY/WX    TMP DP  RH WIND       PRES   REMARKS
LAS VEGAS, NV  CLEAR     46  11  24 W8        30.19R
ELY, NY        CLEAR     14   9  80 S13       30.26S WCI   0
ELKO, NV       CLEAR     19  14  81 CALM      30.27S
POCATELLO, ID  CLOUDY    35  24  64 S16       30.16F WCI  25
BURLEY, ID     PTCLDY    33  24  69 SW12      30.19R WCI  24
FORT BRIDGER,  CLOUDY    26  18  72 W15       30.19F WCI  13
EVANSTON, WY   CLOUDY    21  14  74 W14       30.18F WCI   8
ROCK SPRINGS,  CLOUDY    22  14  71 W16       30.12F WCI   8

$$




USA.gov is the U.S. government's official web portal to all federal, state and local government web resources and services.